User: anonymous   Login
Location: Newark
(49.4900°N, 20.6656°E)
Time: 04:05:34
(UTC+00:00)
Language:

STARLINK-1765 - Orbit

View from above orbital plane
View from above orbital plane
View from above satellite
View from above satellite

Ground track
Ground track

The orbit data is extracted from the following two-line orbital elements,

1 46344U 20062V   20336.58334491 -.01059066  00000-0 -49003-1 0  9998
2 46344  52.9962 354.7573 0001309  68.9300 352.9127 15.22672280 14738
Epoch (UTC): 01 December 2020 14:00:01
Eccentricity: 0.0001309
inclination: 52.9962°
perigee height: 497 km
apogee height: 498 km
right ascension of ascending node: 354.7573°
argument of perigee: 68.9300°
revolutions per day: 15.22672280
mean anomaly at epoch: 352.9127°
orbit number at epoch: 1473

The dashed part of the orbit path shows where the satellite is in the earth's shadow,  

DLR